SR2ATJ-13 Weather Reports


Display with metric or nautical units.
time (UTC)temp
F
wind
direction
speed
MPH
gust
MPH
rain 1hr
in
rain 24hr
in
rain mn
in
humidity
%
barometer
mb
20260506232503 49 0.0 0.0 0.00 0.00 0.00 82 1008.7
20260506231504 50 0.0 0.0 0.00 0.00 0.00 81 1008.7
20260506230503 50 0.0 0.0 0.00 0.00 0.00 81 1008.7
20260506225503 50 0.0 0.0 0.00 0.00 0.00 80 1008.7
20260506224503 50 0.0 0.0 0.00 0.00 0.00 81 1008.9
20260506221504 51 0.0 0.0 0.00 0.00 0.00 81 1008.4
20260506220503 50 0.0 0.0 0.00 0.00 0.00 82 1008.1
20260506215503 50 0.0 0.0 0.00 0.00 0.00 83 1008.2
20260506214503 51 0.0 0.0 0.00 0.00 0.00 84 1007.9
20260506212503 52 0.0 0.0 0.00 0.00 0.00 84 1007.8
20260506204503 53 0.0 0.0 0.00 0.00 0.00 83 1007.8
20260506203503 54 0.0 0.0 0.00 0.00 0.00 83 1007.7
20260506201503 54 0.0 0.0 0.00 0.00 0.00 81 1007.8
20260506200503 54 0.0 0.0 0.00 0.00 0.00 80 1007.7
20260506195503 54 0.0 0.0 0.00 0.00 0.00 80 1007.6
20260506194503 55 0.0 0.0 0.00 0.00 0.00 79 1007.5
20260506193504 55 0.0 0.0 0.00 0.00 0.00 78 1007.4
20260506192504 55 0.0 0.0 0.00 0.00 0.00 78 1007.2
20260506191503 55 0.0 0.0 0.00 0.00 0.00 76 1007.2
20260506184503 56 0.0 0.0 0.00 0.00 0.00 74 1007.1
20260506183503 56 0.0 0.0 0.00 0.00 0.00 73 1006.9
20260506182503 57 0.0 0.0 0.00 0.00 0.00 72 1006.7
20260506180503 59 0.0 0.0 0.00 0.00 0.00 70 1006.4
20260506175503 59 0.0 0.0 0.00 0.00 0.00 69 1006.3
20260506173502 61 0.0 0.0 0.00 0.00 0.00 67 1006.1
20260506172503 63 0.0 0.0 0.00 0.00 0.00 65 1006.1
20260506171502 64 0.0 0.0 0.00 0.00 0.00 64 1006.0
20260506170508 65 0.0 0.0 0.00 0.00 0.00 63 1005.8
20260506165505 65 0.0 0.0 0.00 0.00 0.00 62 1005.8
20260506160502 67 0.0 0.0 0.00 0.00 0.00 58 1005.5
20260506155503 68 0.0 0.0 0.00 0.00 0.00 57 1005.4
20260506154504 68 0.0 0.0 0.00 0.00 0.00 57 1005.4
20260506153502 68 0.0 0.0 0.00 0.00 0.00 58 1005.5
20260506152504 67 0.0 0.0 0.00 0.00 0.00 57 1005.4
20260506151502 68 0.0 0.0 0.00 0.00 0.00 57 1005.4
20260506150503 68 0.0 0.0 0.00 0.00 0.00 56 1005.5
20260506145502 68 0.0 0.0 0.00 0.00 0.00 56 1005.4
20260506144502 68 0.0 0.0 0.00 0.00 0.00 56 1005.5
20260506143502 67 0.0 0.0 0.00 0.00 0.00 57 1005.6
20260506142502 66 0.0 0.0 0.00 0.00 0.00 58 1005.4
20260506141502 67 0.0 0.0 0.00 0.00 0.00 57 1005.4
20260506140502 67 0.0 0.0 0.00 0.00 0.00 57 1005.4
20260506130504 67 0.0 0.0 0.00 0.00 0.00 55 1005.5
20260506125505 68 0.0 0.0 0.00 0.00 0.00 54 1005.3
20260506124504 69 0.0 0.0 0.00 0.00 0.00 53 1005.3
20260506123503 70 0.0 0.0 0.00 0.00 0.00 52 1005.3
20260506121504 67 0.0 0.0 0.00 0.00 0.00 54 1005.4
20260506120504 69 0.0 0.0 0.00 0.00 0.00 52 1005.2
20260506115503 68 0.0 0.0 0.00 0.00 0.00 53 1005.2
20260506114503 69 0.0 0.0 0.00 0.00 0.00 52 1005.2
20260506113504 68 0.0 0.0 0.00 0.00 0.00 53 1005.4
20260506112504 69 0.0 0.0 0.00 0.00 0.00 53 1005.4
20260506111503 67 0.0 0.0 0.00 0.00 0.00 57 1005.4
20260506110503 67 0.0 0.0 0.00 0.00 0.00 56 1005.3
20260506105503 67 0.0 0.0 0.00 0.00 0.00 57 1005.2
20260506104503 67 0.0 0.0 0.00 0.00 0.00 56 1005.1
20260506103503 66 0.0 0.0 0.00 0.00 0.00 55 1005.0
20260506095504 66 0.0 0.0 0.00 0.00 0.00 57 1004.8
20260506093503 66 0.0 0.0 0.00 0.00 0.00 54 1004.7
20260506090503 65 0.0 0.0 0.00 0.00 0.00 58 1004.6
20260506084505 61 0.0 0.0 0.00 0.00 0.00 65 1004.8
20260506083503 61 0.0 0.0 0.00 0.00 0.00 63 1004.4
20260506082503 62 0.0 0.0 0.00 0.00 0.00 62 1004.2
20260506081503 62 0.0 0.0 0.00 0.00 0.00 62 1004.6
20260506080503 62 0.0 0.0 0.00 0.00 0.00 63 1004.7
20260506073503 61 0.0 0.0 0.00 0.00 0.00 63 1004.4
20260506071504 61 0.0 0.0 0.00 0.00 0.00 64 1004.4
20260506070503 61 0.0 0.0 0.00 0.00 0.00 65 1004.4
20260506062505 56 0.0 0.0 0.00 0.00 0.00 75 1004.3
20260506060506 55 0.0 0.0 0.00 0.00 0.00 75 1004.6
20260506042504 51 0.0 0.0 0.00 0.00 0.00 96 1005.4
20260506040504 50 0.0 0.0 0.00 0.00 0.00 10 1005.8
20260506035506 49 0.0 0.0 0.00 0.00 0.00 10 1006.0
20260506033504 49 0.0 0.0 0.00 0.00 0.00 10 1006.2
20260506030504 49 0.0 0.0 0.00 0.00 0.00 10 1006.3
20260506025504 49 0.0 0.0 0.00 0.00 0.00 10 1006.5
20260506020505 50 0.0 0.0 0.00 0.00 0.00 98 1006.9
20260506015504 50 0.0 0.0 0.00 0.00 0.00 98 1007.0
20260506013504 50 0.0 0.0 0.00 0.00 0.00 97 1007.0
20260506012504 50 0.0 0.0 0.00 0.00 0.00 97 1007.1
20260506010505 50 0.0 0.0 0.00 0.00 0.00 97 1007.4
20260506005503 50 0.0 0.0 0.00 0.00 0.00 97 1007.6
20260506004503 50 0.0 0.0 0.00 0.00 0.00 97 1007.4
20260506003502 50 0.0 0.0 0.00 0.00 0.00 97 1007.2
20260506002503 50 0.0 0.0 0.00 0.00 0.00 96 1007.3
20260506001504 50 0.0 0.0 0.00 0.00 0.00 96 1007.4
20260506000503 51 0.0 0.0 0.00 0.00 0.00 96 1007.5
20260505235503 51 0.0 0.0 0.00 0.00 0.00 95 1007.8
20260505234502 51 0.0 0.0 0.00 0.00 0.00 95 1007.9